Flag for U.S.A. Weather past 2 weeks in Post Falls, Idaho, U.S.A.

Now
59 °F

More clouds than sun.


Feels Like: N/A
Forecast: 60 / 80 °F
Wind: N/A

Location: Coeur d'Alene Weather Reporting System

Current Time: Jul 22, 2014 at 3:34:59 PM

Latest Report: Jul 22, 2014 at 9:55 AM


Visibility: 10 mi

Pressure: 30.15 "Hg

Humidity: 88%

Dew point: 55 °F

Location of Post FallsLocation

Historic Weather in Post Falls — Graph

°F

Post Falls temperature yesterday

Maximum temperature yesterday: 75 °F (at 3:55 PM)
Minimum temperature yesterday: 54 °F (at 5:35 AM)
Average temperature yesterday: 66 °F

Past Weeks' High & Low Weather Summary

 TemperatureHumidityPressure
High97 °F (Jul 13, 2:55 PM)88% (Jul 22, 9:55 AM)30.16 "Hg (Jul 22, 9:55 AM)
Low54 °F (Jul 21, 5:35 AM)10% (Jul 10, 9:35 AM)29.74 "Hg (Jul 17, 7:55 PM)
Average74 °F49%29.95 "Hg
* Reported Jul 7 9:15 AM — Jul 22 9:55 AM, Post Falls, Weather by CustomWeather, © 2014

Note: Actual official high and low records may vary slightly from our data, if they occured in-between our weather recording intervals... More about our weather records

Advertising

Post Falls weather history for previous 24 hours

 ConditionsComfort  
Time TempWeatherWind HumidityBarometerVisibility
9:55 AM
Jul 22
59 °FMore clouds than sun.N/A88%30.15 "Hg10 mi
9:35 AM61 °FMostly cloudy.N/A83%30.14 "Hg5 mi
9:15 AM59 °FMostly cloudy.N/A82%30.15 "Hg8 mi
8:55 AM61 °FOvercast.N/A77%30.14 "Hg10 mi
8:35 AM61 °FMostly cloudy.N/A83%30.12 "Hg7 mi
8:15 AM61 °FPartly sunny.N/A77%30.14 "Hg10 mi
7:55 AM63 °FPartly sunny.N/A68%30.12 "Hg10 mi
7:35 AM63 °FPartly sunny.N/A68%30.09 "Hg10 mi
7:15 AM61 °FPartly sunny.N/A72%30.09 "Hg10 mi
6:55 AM61 °FOvercast.N/A72%30.08 "Hg10 mi
6:35 AM61 °FOvercast.N/A72%30.07 "Hg10 mi
6:15 AM61 °FOvercast.N/A72%30.06 "Hg10 mi
5:55 AM59 °FOvercast.N/A77%30.05 "Hg10 mi
5:35 AM59 °FOvercast.N/A77%30.05 "Hg10 mi
5:15 AM59 °FMostly cloudy.N/A72%30.04 "Hg10 mi
4:55 AM59 °FOvercast.N/A72%30.04 "Hg10 mi
4:35 AM59 °FOvercast.N/A72%30.05 "Hg10 mi
4:15 AM61 °FOvercast.N/A68%30.04 "Hg10 mi
3:55 AM61 °FMostly cloudy.N/A63%30.04 "Hg10 mi
3:35 AM63 °FOvercast.N/A59%30.05 "Hg10 mi
2:55 AM61 °FPassing clouds.N/A63%30.04 "Hg10 mi
2:35 AM63 °FPassing clouds.N/A59%30.04 "Hg10 mi
2:15 AM63 °FPassing clouds.N/A59%30.04 "Hg10 mi
1:55 AM63 °FClear.N/A59%30.04 "Hg10 mi
1:35 AM63 °FPassing clouds.N/A59%30.04 "Hg10 mi
1:15 AM63 °FPassing clouds.N/A64%30.04 "Hg10 mi
12:55 AM63 °FClear.N/A59%30.04 "Hg10 mi
12:35 AM61 °FPassing clouds.N/A63%30.04 "Hg10 mi
12:15 AM61 °FPassing clouds.N/A63%30.03 "Hg10 mi
11:55 PM
Jul 21
63 °FClear.N/A59%30.03 "Hg10 mi
11:35 PM63 °FClear.N/A59%30.03 "Hg10 mi
11:15 PM63 °FClear.N/A59%30.03 "Hg10 mi
10:55 PM63 °FClear.N/A59%30.02 "Hg10 mi
10:35 PM63 °FClear.N/A59%30.02 "Hg10 mi
10:15 PM64 °FClear.N/A60%30.02 "Hg10 mi
9:55 PM64 °FClear.N/A60%30.01 "Hg10 mi
9:35 PM66 °FSunny.N/A56%30.02 "Hg10 mi
9:15 PM66 °FSunny.N/A52%30.02 "Hg10 mi
8:55 PM68 °FSunny.N/A49%30.01 "Hg10 mi
8:35 PM70 °FSunny.N/A46%30.01 "Hg10 mi
7:55 PM70 °FSunny.N/A43%30.01 "Hg10 mi
7:35 PM72 °FSunny.N/A41%30.00 "Hg10 mi
7:15 PM73 °FSunny.N/A36%30.00 "Hg10 mi
6:55 PM73 °FSunny.N/A36%30.00 "Hg10 mi
6:35 PM73 °FSunny.N/A33%29.99 "Hg10 mi
6:15 PM75 °FSunny.N/A31%29.99 "Hg10 mi
5:55 PM75 °FSunny.N/A31%30.00 "Hg10 mi
5:35 PM75 °FSunny.N/A34%30.00 "Hg10 mi
5:15 PM75 °FSunny.N/A34%29.99 "Hg10 mi
4:55 PM75 °FSunny.N/A31%30.00 "Hg10 mi
4:35 PM75 °FSunny.N/A34%30.00 "Hg10 mi
4:15 PM75 °FSunny.N/A34%30.00 "Hg10 mi
3:55 PM75 °FSunny.N/A34%30.00 "Hg10 mi
3:35 PM73 °FSunny.N/A36%30.01 "Hg10 mi
3:15 PM73 °FSunny.N/A36%30.00 "Hg10 mi
Weather by CustomWeather, © 2014

See weather overviewHow to use our weather pages